Regional Weather Roundup
Issued by NWS

Home | Current Version | Previous Version | Text Only | Print | Product List | Glossary On
Versions: 1 2 3 4 5 6 7 8 9 10 11 12 13 14 15 16 17 18 19 20 21 22 23 24 25 26 27
000
ASUS42 KFFC 231903
RWRGA
WEATHER ROUNDUP FOR GEORGIA
NATIONAL WEATHER SERVICE PEACHTREE CITY GA
300 PM EDT THU OCT 23 2014

NOTE: "FAIR" INDICATES FEW OR NO CLOUDS BELOW 12,000 FEET WITH NO
SIGNIFICANT WEATHER AND/OR OBSTRUCTIONS TO VISIBILITY.

* = USE WITH CAUTION. THE STATIONS MARKED WITH AN ASTERISK MAY NOT
REPORT WEATHER SUCH AS PRECIPITATION, FOG, OR THUNDER AND ARE NOT
QUALITY CONTROLLED BY NWS.

THE REMARK "TC" DENOTES TEMPERATURE READING IN DEGREES CELSIUS.

GAZ001>058-232000-
NORTH GEORGIA

CITY           SKY/WX    TMP DP  RH WIND       PRES   REMARKS
ATLANTA        MOSUNNY   70  41  34 W8        30.05F
ATHENS         SUNNY     71  41  33 CALM      30.03F
CHAMBLEE       SUNNY     68  38  33 NW10      30.04F
PEACHTREE CITY SUNNY     68  39  34 VRB7      30.05F
ROME           MOSUNNY   68  42  38 NW9       30.07F
WEST ATLANTA   SUNNY     68  41  37 NW10      30.05F
GAINESVILLE    SUNNY     68  38  33 SW7       30.05F
CARTERSVILLE   SUNNY     68  43  40 VRB3      30.07F


CITY           SKY/WX    TMP DP  RH WIND       PRES   REMARKS
DALTON*        SUNNY     64  45  48 N9        30.07F
LAWRENCEVILLE* SUNNY     68  37  32 NW7       30.03F
MARIETTA       PTSUNNY   67  43  40 W10       30.05F
KENNESAW*      MOSUNNY   64  39  39 NW12      30.08F
$$

GAZ059>098-102>109-232000-
CENTRAL GEORGIA

CITY           SKY/WX    TMP DP  RH WIND       PRES   REMARKS
AUGUSTA-BUSH   SUNNY     72  39  30 W8        30.01F
AUGUSTA-DANIEL SUNNY     70  36  28 NW9       30.02F
COLUMBUS       SUNNY     69  42  37 VRB6      30.05F
MACON          SUNNY     71  42  35 NW5       30.04F
ROBINS AFB     SUNNY     70  42  36 VRB6      30.04F


CITY           SKY/WX    TMP DP  RH WIND       PRES   REMARKS
LAGRANGE*      SUNNY     71  46  41 N6        30.06F
SYLVANIA*      SUNNY     75  48  38 NW7       30.03F
MILLEDGEVILLE* SUNNY     68  46  45 CALM      30.04F
$$

GAZ099>101-110>166-232000-
SOUTH GEORGIA

CITY           SKY/WX    TMP DP  RH WIND       PRES   REMARKS
SAVANNAH       SUNNY     70  44  39 W3        30.02F
VALDOSTA       SUNNY     75  38  26 N5        30.01F
ALMA           SUNNY     72  42  34 VRB6      30.02F
ST SIMONS      SUNNY     71  43  36 NW7       30.01F
FT STEWART     SUNNY     71  45  39 CALM      30.00F
ALBANY         SUNNY     72  44  36 VRB5      30.05F
HUNTER AFB     SUNNY     69  46  43 NW8       30.00F
MOODY AFB      SUNNY     73  40  30 VRB7      30.02F
BRUNSWICK      SUNNY     72  45  37 NW6       30.02F


CITY           SKY/WX    TMP DP  RH WIND       PRES   REMARKS
BAINBRIDGE*    SUNNY     79  46  31 NE7       30.03F
MOULTRIE*      SUNNY     72  43  35 N6        30.04F
VIDALIA*       SUNNY     72  45  37 CALM      30.03F
WAYCROSS*      SUNNY     74  45  35 N6        30.02F
DOUGLAS*       SUNNY     73  41  31 NW5       30.04F
$$



USA.gov is the U.S. government's official web portal to all federal, state and local government web resources and services.